Location: Monrovia
(34.7865°N, 86.7139°W)
Time: 20:27:09
(UTC+00:00)

Cosmos 1743 - Pass Details

Date: 14 July 2020
Orbit: 511 x 526 km, 82.6° (Epoch: 08 August)

Event Time Altitude Azimuth Distance (km) Brightness Sun altitude
Exits shadow 09:22:58 22° 264° (W) 1,161 4.0 -14.8°
Maximum altitude 09:23:42 23° 282° (WNW) 1,117 4.0 -14.6°
Drops below altitude 10° 09:26:49 10° 337° (NNW) 1,745 5.6 -14.2°
Sets 09:29:17 0° 352° (N) 2,640 6.7 -13.8°
